Hourly Weather Aley

Today, 15 April, Thursday

Time Temperature Precipitation Wind Pressure Humidity
00:00 +15°C° 0 mm 4 mps 720 mmHg 55%
01:00 +16°C° 0 mm 3 mps 720 mmHg 54%
02:00 +16°C° 0 mm 3 mps 720 mmHg 52%
03:00 +16°C° 0 mm 3 mps 720 mmHg 51%
04:00 +14°C° 0 mm 3 mps 720 mmHg 49%
05:00 +14°C° 0 mm 3 mps 720 mmHg 48%
06:00 +17°C° 0 mm 3 mps 720 mmHg 45%
07:00 +19°C° 0 mm 2 mps 721 mmHg 42%
08:00 +21°C° 0 mm 2 mps 721 mmHg 39%
09:00 +21°C° 0 mm 3 mps 721 mmHg 38%
10:00 +22°C° 0 mm 3 mps 721 mmHg 36%
11:00 +24°C° 0 mm 3 mps 721 mmHg 35%
12:00 +24°C° 0 mm 3 mps 721 mmHg 35%
13:00 +25°C° 0 mm 3 mps 721 mmHg 35%
14:00 +25°C° 0 mm 4 mps 720 mmHg 35%
15:00 +24°C° 0 mm 3 mps 720 mmHg 38%
16:00 +24°C° 0 mm 3 mps 720 mmHg 41%
17:00 +24°C° 0 mm 3 mps 720 mmHg 44%
18:00 +21°C° 0 mm 3 mps 720 mmHg 46%
19:00 +20°C° 0 mm 3 mps 720 mmHg 48%
20:00 +19°C° 0 mm 3 mps 720 mmHg 50%
21:00 +19°C° 0 mm 3 mps 720 mmHg 49%
22:00 +19°C° 0 mm 3 mps 720 mmHg 47%
23:00 +19°C° 0 mm 3 mps 720 mmHg 46%

Tomorrow, 16 April, Friday

Time Temperature Precipitation Wind Pressure Humidity
00:00 +19°C° 0 mm 3 mps 719 mmHg 45%
01:00 +19°C° 0 mm 3 mps 719 mmHg 44%
02:00 +18°C° 0 mm 3 mps 719 mmHg 43%
03:00 +18°C° 0 mm 3 mps 719 mmHg 43%
04:00 +18°C° 0 mm 3 mps 719 mmHg 43%
05:00 +18°C° 0 mm 3 mps 719 mmHg 43%
06:00 +20°C° 0 mm 3 mps 719 mmHg 40%
07:00 +21°C° 0 mm 2 mps 720 mmHg 38%
08:00 +24°C° 0 mm 2 mps 720 mmHg 35%
09:00 +25°C° 0 mm 2 mps 720 mmHg 34%
10:00 +25°C° 0 mm 3 mps 720 mmHg 32%
11:00 +26°C° 0 mm 3 mps 720 mmHg 30%
12:00 +26°C° 0 mm 3 mps 720 mmHg 31%
13:00 +26°C° 0 mm 3 mps 720 mmHg 32%
14:00 +27°C° 0 mm 4 mps 719 mmHg 32%
15:00 +26°C° 0 mm 4 mps 719 mmHg 35%
16:00 +26°C° 0 mm 4 mps 719 mmHg 39%
17:00 +25°C° 0 mm 4 mps 719 mmHg 42%
18:00 +23°C° 0 mm 4 mps 719 mmHg 44%
19:00 +22°C° 0 mm 4 mps 719 mmHg 46%
20:00 +20°C° 0 mm 4 mps 719 mmHg 49%
21:00 +20°C° 0 mm 4 mps 719 mmHg 47%
22:00 +20°C° 0 mm 4 mps 719 mmHg 45%
23:00 +20°C° 0 mm 4 mps 719 mmHg 44%

Day after tomorrow, 17 April, Saturday

Time Temperature Precipitation Wind Pressure Humidity
00:00 +19°C° 0 mm 4 mps 719 mmHg 44%
01:00 +19°C° 0 mm 3 mps 719 mmHg 45%
02:00 +19°C° 0 mm 3 mps 719 mmHg 45%
03:00 +19°C° 0 mm 3 mps 719 mmHg 44%
04:00 +19°C° 0 mm 3 mps 719 mmHg 43%
05:00 +19°C° 0 mm 3 mps 719 mmHg 41%
06:00 +21°C° 0 mm 3 mps 719 mmHg 39%
07:00 +24°C° 0 mm 2 mps 720 mmHg 36%
08:00 +26°C° 0 mm 2 mps 720 mmHg 34%
09:00 +26°C° 0 mm 2 mps 720 mmHg 33%
10:00 +27°C° 0 mm 2 mps 720 mmHg 32%
11:00 +28°C° 0 mm 2 mps 720 mmHg 31%
12:00 +28°C° 0 mm 3 mps 720 mmHg 31%
13:00 +28°C° 0 mm 3 mps 720 mmHg 31%
14:00 +28°C° 0 mm 3 mps 720 mmHg 31%
15:00 +28°C° 0 mm 3 mps 719 mmHg 33%
16:00 +28°C° 0 mm 3 mps 719 mmHg 36%
17:00 +27°C° 0 mm 2 mps 719 mmHg 38%
18:00 +26°C° 0 mm 3 mps 719 mmHg 40%
19:00 +25°C° 0 mm 3 mps 720 mmHg 42%
20:00 +22°C° 0 mm 3 mps 720 mmHg 44%
21:00 +22°C° 0 mm 3 mps 720 mmHg 44%
22:00 +22°C° 0 mm 3 mps 720 mmHg 44%
23:00 +22°C° 0 mm 3 mps 720 mmHg 44%

18 April, Sunday

Time Temperature Precipitation Wind Pressure Humidity
00:00 +22°C° 0 mm 3 mps 720 mmHg 44%
01:00 +22°C° 0 mm 3 mps 720 mmHg 43%
02:00 +22°C° 0 mm 3 mps 719 mmHg 42%
03:00 +22°C° 0 mm 3 mps 719 mmHg 40%
04:00 +22°C° 0 mm 3 mps 719 mmHg 38%
05:00 +22°C° 0 mm 3 mps 719 mmHg 36%
06:00 +25°C° 0 mm 2 mps 720 mmHg 34%
07:00 +26°C° 0 mm 2 mps 720 mmHg 33%
08:00 +28°C° 0 mm 1 mps 721 mmHg 31%
09:00 +29°C° 0 mm 2 mps 721 mmHg 29%
10:00 +30°C° 0 mm 2 mps 721 mmHg 28%
11:00 +31°C° 0 mm 3 mps 721 mmHg 26%
12:00 +31°C° 0 mm 3 mps 721 mmHg 26%
13:00 +31°C° 0 mm 3 mps 721 mmHg 26%
14:00 +31°C° 0 mm 2 mps 720 mmHg 26%
15:00 +31°C° 0 mm 2 mps 720 mmHg 30%
16:00 +30°C° 0 mm 2 mps 720 mmHg 33%
17:00 +30°C° 0 mm 2 mps 720 mmHg 36%
18:00 +29°C° 0 mm 3 mps 720 mmHg 36%
19:00 +28°C° 0 mm 3 mps 720 mmHg 36%
20:00 +26°C° 0 mm 4 mps 720 mmHg 35%
21:00 +26°C° 0 mm 4 mps 720 mmHg 36%
22:00 +26°C° 0 mm 3 mps 720 mmHg 36%
23:00 +26°C° 0 mm 3 mps 719 mmHg 36%

19 April, Monday

Time Temperature Precipitation Wind Pressure Humidity
00:00 +26°C° 0 mm 3 mps 719 mmHg 36%
01:00 +25°C° 0 mm 3 mps 719 mmHg 36%
02:00 +25°C° 0 mm 3 mps 719 mmHg 36%
03:00 +25°C° 0 mm 4 mps 718 mmHg 35%
04:00 +26°C° 0 mm 4 mps 718 mmHg 35%
05:00 +26°C° 0 mm 4 mps 718 mmHg 35%
06:00 +27°C° 0 mm 4 mps 718 mmHg 34%
07:00 +28°C° 0 mm 4 mps 718 mmHg 32%
08:00 +30°C° 0 mm 3 mps 718 mmHg 31%
09:00 +32°C° 0 mm 4 mps 718 mmHg 28%
10:00 +34°C° 0 mm 4 mps 718 mmHg 24%
11:00 +35°C° 0 mm 4 mps 718 mmHg 21%
12:00 +35°C° 0 mm 4 mps 718 mmHg 21%
13:00 +35°C° 0 mm 4 mps 717 mmHg 21%
14:00 +36°C° 0 mm 5 mps 717 mmHg 21%
15:00 +35°C° 0 mm 4 mps 717 mmHg 25%
16:00 +34°C° 0 mm 3 mps 717 mmHg 29%
17:00 +32°C° 0 mm 2 mps 716 mmHg 33%
18:00 +31°C° 0 mm 2 mps 716 mmHg 33%
19:00 +30°C° 0 mm 2 mps 716 mmHg 33%
20:00 +29°C° 0 mm 2 mps 716 mmHg 33%
21:00 +27°C° 0 mm 2 mps 716 mmHg 35%
22:00 +26°C° 0 mm 3 mps 716 mmHg 36%
23:00 +25°C° 0 mm 3 mps 716 mmHg 38%

20 April, Tuesday

Time Temperature Precipitation Wind Pressure Humidity
00:00 +25°C° 0 mm 3 mps 716 mmHg 44%
01:00 +23°C° 0 mm 4 mps 717 mmHg 49%
02:00 +22°C° 0 mm 4 mps 717 mmHg 54%
03:00 +21°C° 0 mm 4 mps 717 mmHg 60%
04:00 +19°C° 0 mm 4 mps 717 mmHg 66%
05:00 +18°C° 0 mm 4 mps 717 mmHg 72%
06:00 +19°C° 0 mm 4 mps 718 mmHg 69%
07:00 +20°C° 0 mm 4 mps 718 mmHg 66%
08:00 +20°C° 0 mm 4 mps 719 mmHg 62%
09:00 +21°C° 0 mm 4 mps 719 mmHg 60%
10:00 +21°C° 0 mm 5 mps 719 mmHg 57%
11:00 +22°C° 0 mm 5 mps 719 mmHg 54%
12:00 +21°C° 0 mm 5 mps 719 mmHg 53%
13:00 +21°C° 0 mm 4 mps 719 mmHg 51%
14:00 +21°C° 0 mm 4 mps 719 mmHg 49%
15:00 +20°C° 0 mm 4 mps 719 mmHg 49%
16:00 +20°C° 0 mm 3 mps 719 mmHg 48%
17:00 +19°C° 0 mm 3 mps 719 mmHg 48%
18:00 +18°C° 0 mm 3 mps 719 mmHg 52%
19:00 +17°C° 0 mm 2 mps 720 mmHg 56%
20:00 +16°C° 0 mm 2 mps 720 mmHg 60%
21:00 +15°C° 0 mm 2 mps 720 mmHg 60%
22:00 +15°C° 0 mm 2 mps 720 mmHg 60%
23:00 +14°C° 0 mm 2 mps 720 mmHg 60%
Show more

We Need Your Consent

Meteoprog and our Service Providers may store and access personal data such as cookies, device identifiers or other similar technologies on your device and process such data to personalise content and ads, as well as provide social media features and to analyse the traffic.

  • Store and/or access information on your device

    Cookies, device identifiers or other information can be stored or accessed on your device for the purposes indicated above.

  • Personalised ads and content, ad and content measurement, audience insights, and products development

    Ads and content can be personalised based on a profile. More data can be added to better personalise ads and content. Ad and content performance can be measured. Insights about the audience who saw the ads and content can be derived. Such data can be used to develop or improve user’s experience, systems and software.

By clicking ‘I Agree’ you will allow the use of indicated cookies, device identifiers, web beacons or other similar technologies. Your settings can be changed in the browser on your device.

For certain purposes, legitimate interests may be relied on, rather than consent. You can read more about this in our Privacy and Cookie Policy.